Location: Appleton
(44.2618°N, 88.4157°W)
Time: 10:15:22
(UTC+00:00)

Explorer 7 - All Passes

Search period start: 01 March 2021 00:00
Search period end: 11 March 2021 00:00
Orbit: 484 x 677 km, 50.3° (Epoch: 28 February)

Date Brightness Start Highest point End Pass type
(mag) Time Alt. Az. Time Alt. Az. Time Alt. Az.
01 Mar - 00:16:24 10° WNW 00:20:18 35° N 00:23:59 10° ENE visible
01 Mar - 01:57:08 10° WNW 02:01:11 77° NNE 02:05:02 10° ESE visible
01 Mar - 03:38:17 10° W 03:41:16 21° SW 03:44:10 10° S visible
01 Mar - 19:19:25 10° S 19:22:51 21° SE 19:26:10 10° E daylight
01 Mar - 20:58:27 10° WSW 21:03:01 89° SSE 21:07:18 10° ENE daylight
01 Mar - 22:39:45 10° W 22:43:52 39° N 22:47:45 10° ENE daylight
02 Mar - 00:21:02 10° WNW 00:25:00 40° N 00:28:45 10° E visible
02 Mar - 02:01:42 10° WNW 02:05:43 73° SSW 02:09:32 10° SE visible
02 Mar - 03:43:44 10° WSW 03:45:33 13° SW 03:47:20 10° SSW visible
02 Mar - 19:23:06 10° SSW 19:27:12 31° SE 19:31:08 10° ENE daylight
02 Mar - 21:03:03 10° WSW 21:07:35 68° NNW 21:11:50 10° ENE daylight
02 Mar - 22:44:31 10° WNW 22:48:34 36° N 22:52:23 10° ENE daylight
03 Mar - 00:25:37 10° WNW 00:29:40 47° NNE 00:33:30 10° E visible
03 Mar - 02:06:18 10° WNW 02:10:11 47° SW 02:13:53 10° SE visible
03 Mar - 19:27:09 10° SW 19:31:37 47° SE 19:35:53 10° ENE daylight
03 Mar - 21:07:45 10° W 21:12:11 53° NNW 21:16:22 10° ENE daylight
03 Mar - 22:49:16 10° WNW 22:53:17 35° N 22:57:05 10° ENE daylight
04 Mar - 00:30:09 10° WNW 00:34:18 61° NNE 00:38:12 10° ESE visible
04 Mar - 02:11:02 10° WNW 02:14:35 30° SW 02:17:58 10° SSE visible
04 Mar - 17:53:17 10° SSE 17:56:04 16° SE 17:58:47 10° E daylight
04 Mar - 19:31:26 10° SW 19:36:05 70° SSE 19:40:29 10° ENE daylight
04 Mar - 21:12:30 10° W 21:16:51 44° NNW 21:20:56 10° ENE daylight
04 Mar - 22:53:56 10° WNW 22:58:00 37° N 23:01:50 10° ENE daylight
05 Mar - 00:34:41 10° WNW 00:38:53 85° NNE 00:42:49 10° ESE visible
05 Mar - 02:16:01 10° W 02:18:54 19° SW 02:21:40 10° S visible
05 Mar - 17:56:35 10° S 18:00:22 24° SE 18:04:02 10° E daylight
05 Mar - 19:35:55 10° WSW 19:40:36 85° NNW 19:45:02 10° ENE daylight
05 Mar - 21:17:17 10° WNW 21:21:32 39° N 21:25:31 10° ENE daylight
05 Mar - 22:58:33 10° WNW 23:02:41 42° NNE 23:06:35 10° E daylight
06 Mar - 00:39:15 10° WNW 00:43:23 66° SSW 00:47:17 10° SE visible
06 Mar - 02:21:43 10° WSW 02:23:09 12° SW 02:24:33 10° SSW visible
06 Mar - 18:00:23 10° SSW 18:04:44 36° SE 18:08:54 10° ENE daylight
06 Mar - 19:40:32 10° WSW 19:45:11 64° NNW 19:49:34 10° ENE daylight
06 Mar - 21:22:03 10° WNW 21:26:14 36° N 21:30:11 10° ENE daylight
06 Mar - 23:03:07 10° WNW 23:07:21 51° NNE 23:11:19 10° E daylight
07 Mar - 00:43:53 10° WNW 00:47:50 43° SW 00:51:33 10° SE visible
07 Mar - 16:27:52 10° SSE 16:29:18 11° SE 16:30:42 10° ESE daylight
07 Mar - 18:04:30 10° SW 18:09:09 53° SE 18:13:35 10° ENE daylight
07 Mar - 19:45:15 10° W 19:49:48 51° NNW 19:54:06 10° ENE daylight
07 Mar - 21:26:46 10° WNW 21:30:57 37° N 21:34:54 10° ENE daylight
07 Mar - 23:07:39 10° WNW 23:11:58 67° NNE 23:16:00 10° ESE daylight
08 Mar - 00:48:39 10° WNW 00:52:12 27° SW 00:55:34 10° SSE visible
08 Mar - 16:30:18 10° S 16:33:33 18° SE 16:36:43 10° E daylight
08 Mar - 18:08:52 10° SW 18:13:38 77° SSE 18:18:11 10° ENE daylight
08 Mar - 19:50:01 10° W 19:54:27 43° NNW 19:58:40 10° ENE daylight
08 Mar - 21:31:26 10° WNW 21:35:39 39° N 21:39:38 10° E daylight
08 Mar - 23:12:11 10° WNW 23:16:32 88° SSW 23:20:34 10° ESE daylight
09 Mar - 00:53:43 10° W 00:56:29 18° SW 00:59:09 10° S visible
09 Mar - 16:33:48 10° SSW 16:37:52 27° SE 16:41:49 10° E daylight
09 Mar - 18:13:22 10° WSW 18:18:10 79° NNW 18:22:43 10° ENE daylight
09 Mar - 19:54:47 10° WNW 19:59:09 39° N 20:03:17 10° ENE daylight
09 Mar - 21:36:01 10° WNW 21:40:20 45° NNE 21:44:23 10° E daylight
09 Mar - 23:16:46 10° WNW 23:21:01 60° SW 23:24:59 10° SE daylight
10 Mar - 00:59:49 10° WSW 01:00:42 11° SW 01:01:35 10° SW visible
10 Mar - 16:37:42 10° SSW 16:42:14 40° SE 16:46:37 10° ENE daylight
10 Mar - 18:18:01 10° WSW 18:22:45 61° NNW 18:27:15 10° ENE daylight
10 Mar - 19:59:32 10° WNW 20:03:51 37° N 20:07:57 10° ENE daylight
10 Mar - 21:40:35 10° WNW 21:44:59 56° NNE 21:49:07 10° E daylight
10 Mar - 23:21:24 10° WNW 23:25:26 39° SW 23:29:12 10° SSE daylight
